GFSWCAN_prec_precacc24_273.txt.gz
Total_Precipitation_Accumulation
0.00 0.00 0.00 0.00 0.00 0.01 0.01 0.01 0.01 0.01 0.02 0.02 0.02 0.02 0.02 0.04 0.08 0.10 0.11 0.06 0.11 0.15 0.02 0.00 0.00 0.00 0.01 0.02 0.04 0.02 0.01 0.03 0.03 0.04 0.04 0.02 0.03 0.05 0.01 0.00 0.00 0.01 0.13 0.21 0.18 0.16 0.10 0.04 0.00 0.04 0.11 0.05 0.05 0.05
0.00 0.00 0.00 0.00 0.00 0.01 0.01 0.02 0.01 0.01 0.01 0.01 0.02 0.02 0.03 0.03 0.06 0.11 0.12 0.10 0.12 0.16 0.05 0.00 0.00 0.00 0.00 0.00 0.02 0.09 0.02 0.03 0.05 0.05 0.06 0.06 0.03 0.01 0.01 0.00 0.00 0.03 0.14 0.16 0.20 0.12 0.02 0.00 0.00 0.01 0.03 0.02 0.01 0.06
0.01 0.01 0.00 0.00 0.00 0.00 0.01 0.01 0.01 0.02 0.02 0.01 0.01 0.03 0.02 0.04 0.05 0.09 0.09 0.11 0.14 0.18 0.03 0.01 0.00 0.00 0.00 0.00 0.00 0.07 0.04 0.01 0.00 0.01 0.04 0.05 0.04 0.01 0.01 0.01 0.00 0.00 0.04 0.12 0.06 0.00 0.00 0.00 0.00 0.00 0.01 0.01 0.01 0.03
0.00 0.00 0.01 0.01 0.01 0.01 0.01 0.02 0.02 0.03 0.02 0.01 0.01 0.02 0.02 0.03 0.04 0.07 0.08 0.09 0.12 0.13 0.06 0.00 0.00 0.00 0.00 0.00 0.00 0.00 0.00 0.00 0.01 0.02 0.09 0.07 0.03 0.00 0.00 0.00 0.00 0.00 0.00 0.00 0.00 0.00 0.01 0.00 0.01 0.02 0.01 0.00 0.00 0.00
0.00 0.00 0.00 0.00 0.02 0.01 0.01 0.01 0.01 0.02 0.01 0.00 0.00 0.01 0.01 0.02 0.04 0.05 0.08 0.09 0.07 0.13 0.11 0.02 0.00 0.00 0.00 0.00 0.00 0.00 0.01 0.02 0.06 0.12 0.14 0.07 0.01 0.04 0.02 0.02 0.00 0.00 0.00 0.00 0.01 0.01 0.02 0.01 0.00 0.00 0.00 0.01 0.01 0.00
0.00 0.00 0.00 0.00 0.00 0.00 0.01 0.02 0.02 0.02 0.02 0.01 0.01 0.01 0.01 0.04 0.05 0.06 0.05 0.02 0.05 0.18 0.34 0.05 0.00 0.00 0.00 0.00 0.00 0.00 0.01 0.03 0.12 0.14 0.09 0.03 0.01 0.09 0.11 0.02 0.00 0.00 0.00 0.00 0.00 0.00 0.00 0.00 0.00 0.01 0.02 0.02 0.01 0.01
0.01 0.00 0.00 0.00 0.00 0.00 0.00 0.01 0.01 0.02 0.02 0.03 0.03 0.02 0.02 0.08 0.06 0.05 0.02 0.02 0.04 0.08 0.16 0.04 0.00 0.00 0.00 0.00 0.00 0.01 0.02 0.08 0.10 0.18 0.11 0.02 0.02 0.18 0.17 0.02 0.00 0.00 0.00 0.00 0.00 0.00 0.00 0.00 0.01 0.01 0.01 0.01 0.00 0.00
0.01 0.01 0.01 0.00 0.00 0.00 0.00 0.00 0.00 0.00 0.00 0.01 0.01 0.02 0.03 0.09 0.13 0.15 0.03 0.00 0.01 0.05 0.10 0.05 0.00 0.00 0.00 0.01 0.02 0.02 0.05 0.15 0.16 0.11 0.04 0.02 0.04 0.13 0.12 0.00 0.00 0.00 0.00 0.01 0.01 0.00 0.01 0.01 0.01 0.01 0.00 0.00 0.00 0.00
0.01 0.01 0.01 0.02 0.02 0.00 0.00 0.00 0.00 0.00 0.00 0.01 0.03 0.04 0.06 0.08 0.11 0.05 0.02 0.03 0.08 0.15 0.15 0.08 0.01 0.00 0.00 0.02 0.08 0.09 0.10 0.18 0.13 0.17 0.02 0.05 0.06 0.09 0.01 0.00 0.00 0.00 0.00 0.00 0.00 0.00 0.05 0.06 0.03 0.01 0.01 0.00 0.01 0.00
0.01 0.02 0.01 0.01 0.01 0.01 0.00 0.00 0.01 0.01 0.01 0.01 0.03 0.05 0.06 0.05 0.04 0.04 0.12 0.37 0.57 0.39 0.20 0.07 0.00 0.00 0.00 0.02 0.09 0.11 0.13 0.08 0.12 0.05 0.03 0.09 0.01 0.00 0.00 0.00 0.00 0.00 0.00 0.01 0.00 0.00 0.01 0.02 0.02 0.02 0.02 0.02 0.03 0.01
0.00 0.01 0.02 0.02 0.02 0.02 0.01 0.00 0.01 0.01 0.01 0.04 0.05 0.07 0.10 0.05 0.17 0.19 0.22 0.26 0.18 0.16 0.07 0.01 0.00 0.00 0.00 0.01 0.06 0.15 0.21 0.16 0.21 0.03 0.05 0.06 0.00 0.00 0.00 0.00 0.00 0.00 0.00 0.00 0.00 0.01 0.01 0.00 0.02 0.03 0.03 0.03 0.01 0.01
0.01 0.01 0.03 0.03 0.02 0.02 0.02 0.01 0.03 0.02 0.05 0.09 0.08 0.13 0.13 0.14 0.27 0.23 0.18 0.12 0.06 0.02 0.00 0.00 0.00 0.00 0.01 0.00 0.04 0.08 0.08 0.08 0.07 0.06 0.17 0.05 0.00 0.00 0.01 0.02 0.01 0.01 0.01 0.01 0.03 0.02 0.01 0.02 0.03 0.02 0.01 0.01 0.01 0.00
0.01 0.01 0.03 0.03 0.03 0.03 0.04 0.04 0.05 0.06 0.06 0.05 0.07 0.12 0.12 0.10 0.20 0.18 0.07 0.03 0.02 0.01 0.01 0.02 0.04 0.08 0.08 0.11 0.20 0.18 0.19 0.11 0.09 0.15 0.08 0.00 0.01 0.03 0.06 0.08 0.06 0.08 0.11 0.08 0.07 0.07 0.04 0.03 0.02 0.02 0.02 0.00 0.00 0.00
0.02 0.02 0.03 0.04 0.03 0.03 0.04 0.03 0.07 0.14 0.15 0.14 0.10 0.10 0.05 0.08 0.03 0.01 0.00 0.01 0.03 0.07 0.10 0.13 0.23 0.28 0.18 0.22 0.17 0.28 0.19 0.20 0.19 0.10 0.01 0.07 0.13 0.13 0.14 0.14 0.18 0.27 0.26 0.16 0.10 0.04 0.01 0.00 0.00 0.00 0.00 0.00 0.00 0.00
0.01 0.01 0.01 0.02 0.02 0.02 0.04 0.04 0.06 0.29 0.32 0.18 0.12 0.08 0.02 0.00 0.01 0.02 0.02 0.02 0.05 0.07 0.11 0.19 0.31 0.51 0.59 0.74 0.35 0.21 0.20 0.15 0.08 0.08 0.20 0.24 0.12 0.14 0.19 0.16 0.16 0.21 0.15 0.10 0.05 0.01 0.00 0.00 0.00 0.00 0.00 0.00 0.00 0.00
0.02 0.02 0.01 0.00 0.02 0.04 0.04 0.04 0.12 0.38 0.45 0.22 0.15 0.06 0.02 0.03 0.02 0.03 0.03 0.05 0.09 0.10 0.11 0.16 0.21 0.22 0.25 0.32 0.44 0.33 0.23 0.20 0.37 0.43 0.44 0.35 0.30 0.33 0.24 0.16 0.11 0.09 0.05 0.03 0.01 0.01 0.00 0.00 0.00 0.00 0.00 0.00 0.00 0.00
0.04 0.08 0.03 0.03 0.04 0.04 0.06 0.12 0.25 0.48 0.45 0.26 0.07 0.01 0.03 0.04 0.04 0.07 0.09 0.11 0.09 0.12 0.21 0.27 0.39 0.23 0.15 0.16 0.12 0.16 0.33 0.48 0.33 0.20 0.13 0.11 0.15 0.14 0.07 0.08 0.07 0.06 0.02 0.01 0.00 0.00 0.00 0.00 0.00 0.00 0.00 0.00 0.00 0.00
0.05 0.04 0.01 0.01 0.05 0.13 0.17 0.22 0.24 0.19 0.15 0.10 0.10 0.07 0.07 0.06 0.06 0.06 0.06 0.07 0.12 0.17 0.18 0.24 0.23 0.14 0.17 0.14 0.09 0.21 0.29 0.20 0.11 0.05 0.03 0.03 0.05 0.05 0.02 0.01 0.01 0.01 0.01 0.00 0.00 0.00 0.00 0.00 0.00 0.00 0.00 0.00 0.00 0.00
0.07 0.03 0.01 0.03 0.14 0.24 0.19 0.18 0.19 0.15 0.02 0.01 0.01 0.02 0.04 0.04 0.04 0.04 0.03 0.04 0.05 0.09 0.19 0.22 0.24 0.13 0.03 0.04 0.07 0.05 0.03 0.04 0.05 0.05 0.02 0.01 0.02 0.01 0.01 0.00 0.00 0.00 0.00 0.00 0.00 0.00 0.00 0.00 0.01 0.01 0.00 0.01 0.01 0.01
0.02 0.02 0.03 0.05 0.26 0.44 0.26 0.09 0.09 0.07 0.02 0.01 0.02 0.03 0.04 0.03 0.03 0.04 0.03 0.03 0.05 0.10 0.20 0.25 0.12 0.05 0.05 0.03 0.02 0.01 0.01 0.01 0.00 0.00 0.00 0.00 0.00 0.00 0.00 0.00 0.01 0.01 0.01 0.01 0.01 0.00 0.00 0.00 0.00 0.00 0.00 0.01 0.02 0.02
0.05 0.03 0.05 0.11 0.35 0.40 0.22 0.09 0.09 0.04 0.03 0.02 0.01 0.04 0.04 0.03 0.03 0.05 0.05 0.05 0.06 0.07 0.08 0.05 0.03 0.01 0.01 0.01 0.01 0.01 0.00 0.00 0.00 0.00 0.00 0.00 0.00 0.00 0.00 0.00 0.00 0.00 0.01 0.01 0.02 0.01 0.01 0.01 0.01 0.01 0.01 0.01 0.03 0.03
0.07 0.07 0.13 0.20 0.29 0.26 0.19 0.03 0.01 0.02 0.04 0.02 0.03 0.05 0.05 0.05 0.05 0.05 0.05 0.05 0.05 0.03 0.05 0.04 0.03 0.02 0.01 0.01 0.01 0.01 0.00 0.00 0.00 0.00 0.00 0.00 0.00 0.00 0.00 0.01 0.01 0.01 0.02 0.02 0.03 0.03 0.02 0.02 0.01 0.01 0.01 0.02 0.02 0.01
0.14 0.15 0.24 0.20 0.22 0.16 0.06 0.01 0.02 0.02 0.04 0.03 0.02 0.03 0.03 0.03 0.01 0.02 0.03 0.01 0.01 0.02 0.02 0.01 0.00 0.00 0.01 0.01 0.01 0.01 0.01 0.01 0.01 0.01 0.02 0.02 0.01 0.01 0.02 0.02 0.02 0.03 0.04 0.04 0.02 0.02 0.02 0.02 0.01 0.01 0.01 0.01 0.00 0.00
0.20 0.27 0.25 0.20 0.12 0.05 0.03 0.04 0.05 0.04 0.05 0.05 0.05 0.04 0.02 0.02 0.03 0.05 0.03 0.01 0.02 0.01 0.01 0.01 0.01 0.02 0.03 0.04 0.04 0.03 0.04 0.05 0.06 0.06 0.06 0.07 0.05 0.04 0.04 0.03 0.01 0.00 0.01 0.04 0.05 0.07 0.06 0.02 0.00 0.00 0.00 0.00 0.00 0.00
0.38 0.23 0.14 0.12 0.10 0.05 0.03 0.02 0.03 0.03 0.05 0.05 0.05 0.05 0.05 0.05 0.08 0.08 0.05 0.02 0.02 0.03 0.03 0.04 0.04 0.04 0.04 0.04 0.03 0.04 0.05 0.07 0.07 0.07 0.06 0.06 0.05 0.05 0.04 0.03 0.02 0.03 0.06 0.08 0.06 0.03 0.00 0.00 0.00 0.00 0.00 0.00 0.00 0.00
0.34 0.10 0.07 0.03 0.03 0.02 0.02 0.02 0.03 0.03 0.03 0.03 0.02 0.02 0.03 0.05 0.04 0.04 0.01 0.01 0.03 0.04 0.05 0.05 0.04 0.03 0.03 0.04 0.05 0.05 0.05 0.03 0.03 0.04 0.05 0.04 0.06 0.10 0.12 0.10 0.07 0.04 0.01 0.03 0.04 0.01 0.00 0.00 0.00 0.00 0.00 0.00 0.00 0.00
0.16 0.08 0.04 0.00 0.01 0.01 0.02 0.02 0.03 0.04 0.04 0.04 0.03 0.04 0.07 0.09 0.04 0.00 0.02 0.04 0.05 0.06 0.04 0.02 0.02 0.04 0.06 0.06 0.06 0.06 0.04 0.04 0.07 0.10 0.09 0.06 0.04 0.06 0.08 0.12 0.12 0.08 0.03 0.02 0.02 0.01 0.00 0.00 0.00 0.00 0.00 0.00 0.00 0.00
0.10 0.02 0.02 0.02 0.02 0.02 0.02 0.02 0.03 0.04 0.03 0.02 0.06 0.07 0.12 0.11 0.05 0.05 0.07 0.06 0.05 0.04 0.03 0.03 0.03 0.03 0.04 0.07 0.08 0.07 0.05 0.04 0.04 0.04 0.03 0.02 0.01 0.02 0.03 0.04 0.03 0.02 0.00 0.00 0.00 0.00 0.00 0.00 0.00 0.00 0.00 0.00 0.00 0.00
0.01 0.00 0.00 0.02 0.03 0.05 0.05 0.04 0.04 0.02 0.02 0.05 0.06 0.05 0.07 0.08 0.08 0.09 0.05 0.04 0.04 0.05 0.05 0.04 0.04 0.04 0.04 0.03 0.03 0.02 0.03 0.03 0.04 0.04 0.03 0.03 0.04 0.04 0.01 0.01 0.00 0.00 0.00 0.00 0.00 0.00 0.00 0.00 0.00 0.00 0.00 0.00 0.01 0.00
0.00 0.00 0.02 0.01 0.02 0.01 0.01 0.02 0.02 0.02 0.03 0.04 0.04 0.05 0.06 0.05 0.04 0.05 0.05 0.04 0.03 0.02 0.01 0.01 0.02 0.03 0.03 0.03 0.03 0.03 0.02 0.02 0.02 0.03 0.04 0.04 0.05 0.04 0.01 0.00 0.00 0.00 0.00 0.00 0.00 0.00 0.00 0.00 0.00 0.00 0.00 0.00 0.00 0.00
0.00 0.01 0.02 0.02 0.02 0.01 0.01 0.04 0.05 0.04 0.03 0.02 0.02 0.05 0.03 0.02 0.01 0.01 0.01 0.01 0.01 0.01 0.01 0.01 0.01 0.01 0.02 0.02 0.03 0.04 0.04 0.03 0.00 0.01 0.01 0.01 0.01 0.01 0.01 0.01 0.00 0.00 0.00 0.00 0.00 0.00 0.00 0.00 0.00 0.00 0.00 0.00 0.00 0.00
0.01 0.02 0.02 0.02 0.01 0.01 0.04 0.05 0.05 0.05 0.04 0.06 0.05 0.05 0.04 0.05 0.03 0.00 0.00 0.01 0.01 0.01 0.01 0.01 0.01 0.01 0.02 0.03 0.03 0.02 0.02 0.03 0.01 0.01 0.01 0.01 0.01 0.01 0.01 0.00 0.00 0.00 0.00 0.00 0.00 0.00 0.00 0.00 0.00 0.00 0.00 0.00 0.00 0.00
0.03 0.03 0.04 0.07 0.06 0.04 0.05 0.10 0.08 0.05 0.04 0.04 0.03 0.04 0.03 0.03 0.01 0.01 0.02 0.02 0.03 0.02 0.03 0.04 0.05 0.04 0.02 0.02 0.01 0.01 0.01 0.01 0.01 0.02 0.03 0.02 0.01 0.00 0.00 0.00 0.00 0.00 0.00 0.00 0.00 0.00 0.00 0.00 0.00 0.00 0.00 0.00 0.00 0.00

GFSWCAN_prec_precacc24_276.txt.gz
Total_Precipitation_Accumulation
0.00 0.00 0.00 0.00 0.00 0.01 0.01 0.01 0.00 0.00 0.01 0.00 0.01 0.01 0.02 0.04 0.06 0.08 0.10 0.06 0.08 0.10 0.02 0.00 0.00 0.00 0.00 0.01 0.03 0.02 0.01 0.01 0.02 0.02 0.02 0.02 0.02 0.01 0.00 0.00 0.00 0.01 0.12 0.20 0.17 0.15 0.09 0.03 0.00 0.03 0.03 0.01 0.02 0.05
0.00 0.00 0.00 0.00 0.00 0.00 0.01 0.01 0.01 0.01 0.01 0.01 0.01 0.01 0.02 0.03 0.05 0.08 0.10 0.10 0.11 0.12 0.03 0.00 0.00 0.00 0.00 0.00 0.02 0.08 0.02 0.01 0.02 0.04 0.05 0.05 0.03 0.01 0.01 0.00 0.00 0.01 0.10 0.10 0.18 0.11 0.02 0.00 0.00 0.00 0.01 0.01 0.01 0.06
0.00 0.00 0.00 0.00 0.00 0.00 0.01 0.01 0.01 0.01 0.01 0.00 0.01 0.02 0.02 0.03 0.04 0.07 0.07 0.11 0.11 0.12 0.02 0.01 0.00 0.00 0.00 0.00 0.00 0.07 0.03 0.01 0.00 0.01 0.03 0.04 0.03 0.01 0.01 0.00 0.00 0.00 0.00 0.02 0.03 0.00 0.00 0.00 0.00 0.00 0.01 0.01 0.01 0.03
0.00 0.00 0.00 0.00 0.00 0.00 0.01 0.00 0.01 0.02 0.01 0.00 0.00 0.01 0.02 0.02 0.04 0.06 0.08 0.09 0.10 0.10 0.05 0.00 0.00 0.00 0.00 0.00 0.00 0.00 0.00 0.00 0.01 0.02 0.08 0.05 0.02 0.00 0.00 0.00 0.00 0.00 0.00 0.00 0.00 0.00 0.01 0.00 0.01 0.02 0.01 0.00 0.00 0.00
0.00 0.00 0.00 0.00 0.01 0.00 0.01 0.01 0.00 0.01 0.01 0.00 0.00 0.00 0.00 0.02 0.03 0.04 0.07 0.07 0.06 0.11 0.10 0.02 0.00 0.00 0.00 0.00 0.00 0.00 0.01 0.02 0.06 0.09 0.11 0.06 0.01 0.01 0.01 0.01 0.00 0.00 0.00 0.00 0.01 0.01 0.02 0.01 0.00 0.00 0.00 0.01 0.01 0.00
0.00 0.00 0.00 0.00 0.00 0.00 0.00 0.00 0.01 0.02 0.02 0.01 0.00 0.01 0.01 0.03 0.04 0.06 0.04 0.02 0.04 0.14 0.25 0.04 0.00 0.00 0.00 0.00 0.00 0.00 0.01 0.03 0.11 0.11 0.07 0.02 0.00 0.04 0.07 0.01 0.00 0.00 0.00 0.00 0.00 0.00 0.00 0.00 0.00 0.01 0.02 0.02 0.01 0.01
0.01 0.00 0.00 0.00 0.00 0.00 0.00 0.01 0.01 0.01 0.01 0.02 0.02 0.02 0.02 0.05 0.05 0.05 0.02 0.02 0.04 0.07 0.12 0.04 0.00 0.00 0.00 0.00 0.00 0.01 0.02 0.08 0.10 0.16 0.09 0.01 0.01 0.14 0.13 0.01 0.00 0.00 0.00 0.00 0.00 0.00 0.00 0.00 0.01 0.01 0.01 0.01 0.00 0.00
0.00 0.01 0.01 0.00 0.00 0.00 0.01 0.01 0.00 0.00 0.00 0.00 0.00 0.01 0.03 0.06 0.10 0.12 0.02 0.00 0.01 0.05 0.09 0.05 0.00 0.00 0.00 0.01 0.02 0.01 0.04 0.12 0.13 0.10 0.04 0.02 0.03 0.10 0.11 0.00 0.00 0.00 0.00 0.00 0.00 0.00 0.01 0.01 0.01 0.01 0.00 0.00 0.00 0.00
0.00 0.00 0.01 0.02 0.02 0.01 0.00 0.00 0.00 0.00 0.00 0.00 0.01 0.02 0.06 0.07 0.11 0.05 0.02 0.03 0.07 0.14 0.14 0.07 0.00 0.00 0.00 0.02 0.06 0.08 0.08 0.11 0.07 0.12 0.02 0.04 0.05 0.09 0.01 0.00 0.00 0.00 0.00 0.00 0.00 0.00 0.01 0.01 0.02 0.01 0.01 0.00 0.01 0.00
0.01 0.01 0.01 0.01 0.01 0.01 0.00 0.00 0.00 0.01 0.01 0.00 0.02 0.05 0.06 0.05 0.04 0.04 0.09 0.30 0.46 0.31 0.17 0.06 0.00 0.00 0.00 0.02 0.09 0.11 0.13 0.08 0.12 0.05 0.03 0.09 0.01 0.00 0.00 0.00 0.00 0.00 0.00 0.00 0.00 0.00 0.00 0.02 0.02 0.02 0.02 0.02 0.03 0.01
0.00 0.00 0.01 0.02 0.02 0.02 0.01 0.00 0.01 0.00 0.01 0.03 0.04 0.07 0.10 0.05 0.13 0.14 0.19 0.19 0.16 0.14 0.06 0.01 0.00 0.00 0.00 0.01 0.06 0.15 0.21 0.16 0.21 0.03 0.05 0.06 0.01 0.00 0.00 0.00 0.00 0.00 0.00 0.00 0.01 0.01 0.01 0.00 0.02 0.03 0.03 0.03 0.01 0.01
0.00 0.01 0.01 0.02 0.02 0.02 0.01 0.00 0.02 0.02 0.04 0.06 0.05 0.10 0.12 0.12 0.22 0.21 0.17 0.11 0.05 0.02 0.00 0.00 0.00 0.00 0.00 0.00 0.03 0.07 0.08 0.08 0.07 0.06 0.15 0.05 0.01 0.01 0.01 0.02 0.01 0.01 0.02 0.03 0.04 0.04 0.03 0.04 0.04 0.03 0.02 0.03 0.04 0.04
0.00 0.00 0.01 0.02 0.02 0.03 0.03 0.02 0.03 0.05 0.05 0.04 0.04 0.09 0.10 0.09 0.16 0.17 0.07 0.03 0.02 0.02 0.02 0.02 0.03 0.05 0.06 0.06 0.12 0.12 0.15 0.09 0.07 0.13 0.07 0.01 0.01 0.03 0.06 0.08 0.06 0.08 0.11 0.12 0.10 0.09 0.09 0.05 0.03 0.04 0.04 0.04 0.02 0.01
0.00 0.01 0.02 0.03 0.02 0.02 0.04 0.03 0.04 0.08 0.13 0.11 0.07 0.08 0.05 0.08 0.03 0.01 0.00 0.01 0.04 0.08 0.09 0.12 0.22 0.27 0.18 0.21 0.13 0.17 0.11 0.16 0.19 0.10 0.02 0.08 0.13 0.13 0.14 0.14 0.18 0.27 0.26 0.16 0.10 0.04 0.02 0.00 0.00 0.00 0.00 0.00 0.00 0.00
0.00 0.00 0.02 0.02 0.01 0.01 0.03 0.04 0.04 0.25 0.30 0.15 0.11 0.07 0.02 0.00 0.01 0.02 0.02 0.02 0.05 0.07 0.11 0.19 0.31 0.51 0.59 0.74 0.37 0.24 0.24 0.16 0.09 0.09 0.22 0.24 0.12 0.14 0.19 0.16 0.16 0.21 0.15 0.10 0.05 0.01 0.00 0.00 0.00 0.00 0.00 0.00 0.00 0.00
0.02 0.02 0.02 0.01 0.02 0.03 0.03 0.04 0.10 0.31 0.40 0.18 0.14 0.05 0.02 0.03 0.02 0.03 0.03 0.05 0.09 0.10 0.11 0.16 0.20 0.21 0.25 0.32 0.45 0.35 0.25 0.22 0.40 0.44 0.45 0.35 0.30 0.33 0.24 0.16 0.11 0.09 0.05 0.03 0.01 0.01 0.00 0.00 0.00 0.00 0.00 0.00 0.00 0.00
0.04 0.08 0.04 0.04 0.03 0.02 0.03 0.11 0.23 0.36 0.30 0.22 0.06 0.01 0.03 0.04 0.04 0.07 0.09 0.11 0.09 0.12 0.21 0.27 0.39 0.23 0.15 0.17 0.12 0.17 0.35 0.51 0.37 0.24 0.15 0.12 0.15 0.14 0.07 0.08 0.07 0.06 0.02 0.01 0.00 0.00 0.00 0.00 0.00 0.00 0.00 0.00 0.00 0.00
0.05 0.06 0.02 0.01 0.03 0.07 0.15 0.20 0.23 0.18 0.12 0.06 0.08 0.07 0.07 0.06 0.06 0.06 0.05 0.07 0.12 0.17 0.18 0.24 0.22 0.14 0.17 0.14 0.09 0.21 0.30 0.21 0.11 0.05 0.03 0.02 0.05 0.05 0.02 0.01 0.01 0.01 0.01 0.00 0.00 0.00 0.00 0.00 0.00 0.00 0.00 0.00 0.00 0.00
0.07 0.04 0.00 0.02 0.09 0.13 0.17 0.18 0.18 0.15 0.02 0.01 0.01 0.02 0.04 0.04 0.04 0.04 0.03 0.04 0.05 0.09 0.20 0.21 0.23 0.12 0.03 0.04 0.07 0.05 0.03 0.04 0.05 0.05 0.02 0.01 0.02 0.01 0.01 0.00 0.00 0.00 0.00 0.00 0.00 0.00 0.00 0.00 0.00 0.00 0.00 0.00 0.00 0.00
0.01 0.01 0.02 0.02 0.11 0.29 0.23 0.09 0.09 0.07 0.02 0.01 0.02 0.03 0.04 0.03 0.03 0.04 0.03 0.03 0.05 0.10 0.19 0.25 0.12 0.05 0.05 0.03 0.02 0.01 0.00 0.00 0.00 0.00 0.00 0.00 0.00 0.00 0.00 0.00 0.01 0.01 0.01 0.01 0.01 0.00 0.00 0.00 0.00 0.00 0.00 0.00 0.01 0.01
0.04 0.03 0.04 0.07 0.12 0.21 0.19 0.09 0.09 0.04 0.03 0.02 0.01 0.04 0.04 0.03 0.03 0.05 0.05 0.05 0.06 0.07 0.08 0.05 0.03 0.01 0.01 0.01 0.01 0.01 0.00 0.00 0.00 0.00 0.00 0.00 0.00 0.00 0.00 0.00 0.00 0.00 0.01 0.01 0.02 0.01 0.01 0.01 0.01 0.01 0.01 0.02 0.03 0.04
0.07 0.05 0.09 0.13 0.16 0.17 0.14 0.03 0.01 0.02 0.04 0.02 0.03 0.05 0.05 0.05 0.05 0.05 0.05 0.05 0.05 0.03 0.05 0.04 0.03 0.02 0.01 0.00 0.01 0.00 0.00 0.00 0.00 0.00 0.00 0.01 0.00 0.00 0.00 0.01 0.01 0.01 0.02 0.02 0.03 0.03 0.02 0.02 0.01 0.02 0.04 0.05 0.03 0.01
0.09 0.10 0.14 0.14 0.17 0.12 0.05 0.01 0.02 0.02 0.04 0.03 0.02 0.03 0.03 0.03 0.01 0.02 0.03 0.01 0.01 0.02 0.02 0.01 0.00 0.00 0.01 0.00 0.00 0.00 0.00 0.01 0.02 0.02 0.03 0.03 0.02 0.01 0.01 0.02 0.02 0.03 0.04 0.04 0.02 0.03 0.04 0.05 0.07 0.07 0.04 0.02 0.00 0.00
0.12 0.18 0.16 0.12 0.10 0.05 0.03 0.04 0.05 0.04 0.05 0.05 0.04 0.03 0.02 0.02 0.02 0.04 0.03 0.01 0.02 0.01 0.01 0.01 0.01 0.02 0.02 0.01 0.01 0.00 0.02 0.05 0.06 0.07 0.07 0.07 0.06 0.04 0.04 0.03 0.01 0.00 0.01 0.03 0.07 0.12 0.12 0.08 0.04 0.01 0.00 0.00 0.00 0.00
0.23 0.12 0.11 0.08 0.07 0.04 0.03 0.02 0.03 0.03 0.05 0.05 0.05 0.05 0.05 0.04 0.05 0.05 0.04 0.02 0.02 0.03 0.03 0.04 0.04 0.03 0.02 0.01 0.01 0.02 0.05 0.07 0.08 0.07 0.06 0.06 0.05 0.05 0.04 0.03 0.02 0.03 0.06 0.09 0.08 0.06 0.05 0.03 0.01 0.00 0.00 0.00 0.00 0.00
0.26 0.05 0.05 0.03 0.03 0.02 0.02 0.02 0.03 0.03 0.03 0.03 0.02 0.02 0.03 0.05 0.04 0.03 0.01 0.01 0.03 0.04 0.05 0.05 0.03 0.02 0.02 0.03 0.04 0.05 0.05 0.04 0.03 0.04 0.05 0.04 0.06 0.10 0.12 0.10 0.07 0.04 0.01 0.04 0.07 0.04 0.02 0.01 0.00 0.00 0.00 0.00 0.00 0.00
0.12 0.05 0.03 0.00 0.01 0.01 0.02 0.02 0.03 0.04 0.04 0.04 0.03 0.04 0.07 0.08 0.04 0.00 0.02 0.04 0.05 0.06 0.04 0.02 0.02 0.04 0.06 0.06 0.06 0.06 0.04 0.04 0.07 0.10 0.09 0.06 0.04 0.06 0.08 0.12 0.12 0.08 0.03 0.03 0.03 0.02 0.00 0.00 0.00 0.00 0.00 0.00 0.00 0.00
0.05 0.01 0.02 0.02 0.02 0.02 0.02 0.02 0.03 0.03 0.03 0.02 0.04 0.04 0.05 0.05 0.03 0.03 0.07 0.06 0.05 0.04 0.03 0.03 0.03 0.03 0.04 0.07 0.08 0.07 0.05 0.05 0.04 0.04 0.03 0.02 0.01 0.02 0.03 0.04 0.04 0.02 0.01 0.01 0.00 0.00 0.00 0.00 0.00 0.00 0.00 0.00 0.00 0.00
0.01 0.00 0.00 0.01 0.03 0.05 0.05 0.04 0.03 0.02 0.02 0.05 0.06 0.04 0.03 0.03 0.03 0.03 0.03 0.04 0.04 0.05 0.05 0.04 0.03 0.04 0.04 0.03 0.02 0.02 0.03 0.03 0.04 0.04 0.03 0.03 0.03 0.04 0.01 0.01 0.01 0.00 0.00 0.00 0.00 0.00 0.00 0.00 0.00 0.00 0.00 0.00 0.00 0.00
0.00 0.00 0.02 0.01 0.02 0.01 0.01 0.02 0.02 0.02 0.03 0.04 0.04 0.04 0.03 0.02 0.02 0.02 0.04 0.04 0.03 0.02 0.01 0.01 0.02 0.03 0.03 0.03 0.03 0.03 0.02 0.02 0.02 0.03 0.04 0.04 0.05 0.04 0.01 0.00 0.00 0.00 0.00 0.00 0.00 0.00 0.00 0.00 0.00 0.00 0.00 0.00 0.00 0.00
0.00 0.01 0.02 0.02 0.02 0.01 0.01 0.04 0.05 0.04 0.03 0.02 0.02 0.04 0.02 0.01 0.01 0.01 0.01 0.01 0.01 0.01 0.01 0.01 0.01 0.01 0.02 0.02 0.03 0.05 0.05 0.03 0.01 0.01 0.01 0.01 0.01 0.01 0.01 0.01 0.01 0.01 0.00 0.00 0.00 0.00 0.00 0.00 0.00 0.00 0.00 0.00 0.00 0.00
0.01 0.02 0.02 0.02 0.01 0.01 0.04 0.05 0.05 0.05 0.04 0.05 0.04 0.04 0.04 0.04 0.02 0.00 0.00 0.01 0.01 0.01 0.01 0.01 0.01 0.02 0.02 0.03 0.03 0.02 0.03 0.03 0.01 0.01 0.01 0.01 0.01 0.02 0.01 0.01 0.01 0.00 0.00 0.00 0.00 0.00 0.00 0.00 0.00 0.00 0.00 0.00 0.00 0.00
0.03 0.03 0.04 0.07 0.06 0.04 0.05 0.08 0.06 0.04 0.04 0.04 0.03 0.03 0.03 0.03 0.01 0.01 0.02 0.02 0.02 0.02 0.03 0.04 0.05 0.04 0.02 0.02 0.01 0.01 0.01 0.02 0.02 0.03 0.03 0.04 0.04 0.03 0.02 0.01 0.00 0.00 0.00 0.00 0.00 0.00 0.00 0.00 0.00 0.00 0.00 0.00 0.00 0.00

GFSWCAN_prec_precacc24_279.txt.gz
Total_Precipitation_Accumulation
0.01 0.00 0.00 0.00 0.00 0.01 0.01 0.01 0.00 0.00 0.00 0.00 0.00 0.01 0.01 0.03 0.05 0.05 0.09 0.05 0.05 0.06 0.01 0.00 0.00 0.00 0.00 0.01 0.02 0.02 0.01 0.01 0.01 0.02 0.02 0.01 0.01 0.01 0.00 0.00 0.00 0.01 0.08 0.17 0.15 0.13 0.09 0.03 0.00 0.03 0.03 0.01 0.02 0.02
0.00 0.00 0.00 0.00 0.00 0.00 0.01 0.01 0.00 0.00 0.01 0.01 0.01 0.01 0.01 0.02 0.04 0.06 0.09 0.10 0.10 0.10 0.03 0.00 0.00 0.00 0.00 0.00 0.02 0.06 0.01 0.01 0.01 0.02 0.04 0.05 0.03 0.01 0.01 0.00 0.00 0.01 0.04 0.05 0.09 0.08 0.02 0.00 0.00 0.00 0.01 0.01 0.01 0.01
0.00 0.00 0.00 0.00 0.00 0.00 0.01 0.01 0.01 0.01 0.01 0.00 0.01 0.02 0.01 0.02 0.03 0.05 0.06 0.09 0.06 0.07 0.01 0.01 0.00 0.00 0.00 0.00 0.00 0.05 0.03 0.01 0.00 0.01 0.03 0.04 0.02 0.01 0.01 0.00 0.00 0.00 0.00 0.01 0.02 0.00 0.00 0.00 0.00 0.00 0.01 0.01 0.01 0.00
0.00 0.00 0.00 0.00 0.00 0.00 0.00 0.00 0.00 0.01 0.01 0.00 0.00 0.00 0.01 0.02 0.03 0.05 0.07 0.07 0.08 0.07 0.03 0.00 0.00 0.00 0.00 0.00 0.00 0.00 0.00 0.00 0.01 0.02 0.07 0.05 0.02 0.00 0.00 0.00 0.00 0.00 0.00 0.00 0.00 0.00 0.01 0.00 0.01 0.02 0.01 0.00 0.00 0.00
0.00 0.00 0.00 0.00 0.00 0.00 0.00 0.00 0.00 0.01 0.01 0.00 0.00 0.00 0.00 0.02 0.02 0.03 0.07 0.07 0.05 0.06 0.06 0.01 0.00 0.00 0.00 0.00 0.00 0.00 0.01 0.02 0.06 0.09 0.10 0.05 0.01 0.01 0.01 0.01 0.00 0.00 0.00 0.00 0.01 0.01 0.02 0.01 0.00 0.00 0.00 0.01 0.01 0.00
0.00 0.00 0.00 0.00 0.00 0.00 0.00 0.00 0.01 0.01 0.01 0.00 0.00 0.01 0.00 0.01 0.02 0.06 0.04 0.02 0.03 0.08 0.14 0.03 0.00 0.00 0.00 0.00 0.00 0.00 0.01 0.03 0.10 0.09 0.06 0.02 0.00 0.03 0.06 0.01 0.00 0.00 0.00 0.00 0.00 0.00 0.00 0.00 0.00 0.01 0.02 0.02 0.01 0.01
0.01 0.00 0.00 0.00 0.00 0.00 0.00 0.01 0.01 0.00 0.01 0.01 0.01 0.01 0.02 0.03 0.04 0.05 0.02 0.02 0.04 0.06 0.09 0.03 0.00 0.00 0.00 0.00 0.00 0.01 0.02 0.07 0.08 0.13 0.07 0.01 0.01 0.09 0.09 0.01 0.00 0.00 0.00 0.00 0.00 0.00 0.00 0.00 0.01 0.01 0.01 0.01 0.00 0.00
0.00 0.00 0.01 0.00 0.00 0.00 0.01 0.01 0.00 0.00 0.00 0.00 0.00 0.01 0.02 0.04 0.06 0.05 0.02 0.00 0.01 0.04 0.08 0.05 0.00 0.00 0.00 0.01 0.01 0.01 0.03 0.09 0.10 0.08 0.04 0.01 0.02 0.09 0.11 0.00 0.00 0.00 0.00 0.00 0.00 0.00 0.01 0.00 0.01 0.01 0.00 0.00 0.00 0.00
0.00 0.00 0.00 0.01 0.01 0.01 0.01 0.00 0.00 0.00 0.00 0.00 0.00 0.01 0.05 0.07 0.10 0.04 0.02 0.02 0.07 0.13 0.14 0.06 0.00 0.00 0.00 0.02 0.06 0.05 0.05 0.09 0.05 0.10 0.02 0.03 0.04 0.08 0.01 0.00 0.00 0.00 0.00 0.01 0.00 0.00 0.00 0.01 0.01 0.01 0.01 0.00 0.01 0.00
0.00 0.00 0.00 0.00 0.01 0.02 0.00 0.00 0.00 0.00 0.01 0.00 0.02 0.05 0.06 0.05 0.04 0.04 0.08 0.23 0.33 0.19 0.13 0.06 0.00 0.00 0.00 0.02 0.09 0.11 0.12 0.06 0.10 0.04 0.03 0.09 0.01 0.00 0.00 0.00 0.00 0.00 0.00 0.00 0.02 0.02 0.02 0.03 0.02 0.02 0.02 0.02 0.03 0.01
0.00 0.00 0.01 0.01 0.01 0.01 0.01 0.00 0.00 0.00 0.01 0.03 0.04 0.07 0.10 0.05 0.10 0.11 0.15 0.13 0.12 0.12 0.05 0.01 0.00 0.00 0.00 0.01 0.06 0.15 0.21 0.16 0.20 0.03 0.05 0.06 0.01 0.00 0.00 0.00 0.00 0.00 0.00 0.01 0.02 0.03 0.03 0.02 0.03 0.05 0.05 0.04 0.02 0.01
0.01 0.01 0.01 0.01 0.00 0.02 0.01 0.00 0.00 0.02 0.04 0.04 0.04 0.09 0.11 0.10 0.15 0.13 0.13 0.09 0.05 0.02 0.00 0.00 0.00 0.00 0.00 0.00 0.02 0.07 0.08 0.08 0.07 0.06 0.15 0.05 0.01 0.01 0.01 0.02 0.01 0.01 0.02 0.03 0.04 0.04 0.04 0.04 0.05 0.05 0.04 0.04 0.06 0.07
0.01 0.00 0.00 0.01 0.01 0.02 0.03 0.02 0.01 0.03 0.04 0.04 0.03 0.07 0.08 0.06 0.13 0.14 0.06 0.03 0.02 0.02 0.02 0.02 0.02 0.03 0.04 0.04 0.11 0.11 0.13 0.08 0.06 0.12 0.06 0.01 0.01 0.03 0.06 0.08 0.06 0.08 0.11 0.12 0.10 0.09 0.09 0.05 0.03 0.04 0.04 0.04 0.02 0.02
0.01 0.00 0.00 0.02 0.02 0.01 0.02 0.03 0.03 0.05 0.08 0.11 0.05 0.05 0.04 0.07 0.03 0.01 0.00 0.01 0.05 0.08 0.09 0.09 0.17 0.23 0.16 0.17 0.13 0.15 0.08 0.11 0.13 0.07 0.02 0.08 0.13 0.13 0.14 0.14 0.18 0.27 0.26 0.16 0.10 0.04 0.02 0.00 0.00 0.00 0.00 0.00 0.00 0.00
0.00 0.00 0.01 0.02 0.01 0.01 0.02 0.02 0.03 0.11 0.18 0.14 0.10 0.07 0.02 0.00 0.01 0.02 0.02 0.02 0.05 0.07 0.11 0.18 0.29 0.49 0.58 0.72 0.36 0.23 0.24 0.17 0.10 0.10 0.24 0.24 0.12 0.14 0.19 0.16 0.16 0.21 0.15 0.10 0.05 0.01 0.00 0.00 0.00 0.00 0.00 0.00 0.00 0.00
0.02 0.03 0.02 0.01 0.01 0.02 0.01 0.03 0.09 0.20 0.26 0.16 0.13 0.05 0.03 0.03 0.02 0.03 0.03 0.05 0.08 0.10 0.10 0.14 0.18 0.19 0.23 0.31 0.44 0.34 0.26 0.23 0.42 0.46 0.47 0.36 0.30 0.33 0.24 0.16 0.11 0.09 0.05 0.03 0.01 0.01 0.00 0.00 0.00 0.00 0.00 0.00 0.00 0.00
0.02 0.09 0.05 0.03 0.02 0.01 0.01 0.06 0.22 0.28 0.19 0.16 0.06 0.01 0.03 0.04 0.04 0.07 0.09 0.11 0.09 0.09 0.16 0.24 0.36 0.22 0.14 0.16 0.11 0.17 0.36 0.51 0.38 0.25 0.16 0.13 0.16 0.14 0.07 0.08 0.07 0.06 0.02 0.01 0.00 0.00 0.00 0.00 0.00 0.00 0.00 0.00 0.00 0.00
0.04 0.07 0.03 0.01 0.02 0.06 0.08 0.09 0.18 0.16 0.09 0.03 0.04 0.05 0.07 0.06 0.06 0.06 0.05 0.07 0.12 0.16 0.16 0.23 0.22 0.14 0.16 0.14 0.09 0.21 0.30 0.21 0.11 0.05 0.03 0.02 0.05 0.05 0.02 0.01 0.01 0.01 0.01 0.00 0.00 0.00 0.00 0.00 0.00 0.00 0.00 0.00 0.00 0.00
0.08 0.03 0.00 0.01 0.05 0.09 0.09 0.10 0.14 0.13 0.02 0.01 0.01 0.02 0.04 0.04 0.04 0.04 0.03 0.03 0.05 0.08 0.19 0.20 0.23 0.12 0.03 0.04 0.07 0.05 0.03 0.04 0.05 0.05 0.02 0.01 0.02 0.01 0.01 0.00 0.00 0.00 0.00 0.00 0.00 0.00 0.00 0.00 0.00 0.00 0.00 0.00 0.00 0.00
0.01 0.00 0.01 0.01 0.06 0.16 0.15 0.07 0.08 0.06 0.02 0.01 0.02 0.03 0.04 0.03 0.03 0.04 0.03 0.03 0.05 0.09 0.19 0.24 0.12 0.05 0.05 0.03 0.02 0.01 0.00 0.00 0.00 0.00 0.00 0.00 0.00 0.00 0.00 0.01 0.01 0.01 0.01 0.01 0.01 0.00 0.00 0.00 0.00 0.00 0.00 0.00 0.01 0.02
0.03 0.02 0.02 0.04 0.09 0.13 0.11 0.08 0.08 0.04 0.03 0.02 0.01 0.04 0.04 0.03 0.03 0.05 0.05 0.05 0.06 0.07 0.08 0.05 0.03 0.01 0.01 0.01 0.01 0.01 0.00 0.00 0.00 0.00 0.00 0.00 0.00 0.00 0.01 0.01 0.01 0.00 0.01 0.01 0.02 0.01 0.01 0.01 0.01 0.01 0.01 0.02 0.05 0.08
0.07 0.03 0.07 0.11 0.13 0.10 0.07 0.02 0.01 0.02 0.04 0.02 0.03 0.05 0.05 0.05 0.05 0.05 0.05 0.05 0.05 0.03 0.05 0.04 0.03 0.02 0.01 0.00 0.01 0.00 0.00 0.00 0.00 0.00 0.00 0.01 0.01 0.01 0.01 0.01 0.01 0.01 0.02 0.02 0.03 0.03 0.02 0.02 0.02 0.04 0.08 0.12 0.10 0.06
0.06 0.07 0.10 0.10 0.11 0.06 0.02 0.01 0.02 0.02 0.04 0.03 0.02 0.03 0.03 0.03 0.01 0.02 0.03 0.01 0.01 0.02 0.02 0.01 0.00 0.00 0.01 0.00 0.00 0.00 0.00 0.00 0.00 0.01 0.01 0.02 0.02 0.02 0.01 0.02 0.02 0.03 0.04 0.04 0.02 0.03 0.04 0.07 0.11 0.12 0.10 0.05 0.01 0.00
0.08 0.12 0.11 0.08 0.06 0.03 0.03 0.04 0.04 0.04 0.05 0.05 0.04 0.03 0.02 0.02 0.02 0.04 0.03 0.01 0.02 0.01 0.01 0.01 0.01 0.02 0.02 0.01 0.01 0.00 0.01 0.02 0.01 0.02 0.03 0.05 0.06 0.04 0.04 0.03 0.01 0.00 0.01 0.03 0.07 0.12 0.12 0.10 0.07 0.04 0.01 0.00 0.00 0.00
0.16 0.07 0.05 0.04 0.04 0.03 0.02 0.02 0.03 0.03 0.05 0.05 0.05 0.05 0.05 0.04 0.05 0.04 0.03 0.02 0.02 0.03 0.03 0.04 0.04 0.03 0.02 0.01 0.01 0.01 0.02 0.03 0.04 0.05 0.06 0.06 0.05 0.05 0.04 0.03 0.02 0.03 0.06 0.09 0.08 0.06 0.05 0.04 0.02 0.01 0.00 0.00 0.00 0.00
0.22 0.04 0.02 0.01 0.02 0.02 0.02 0.02 0.03 0.03 0.03 0.03 0.02 0.02 0.03 0.05 0.04 0.03 0.01 0.01 0.03 0.04 0.05 0.05 0.03 0.02 0.01 0.02 0.03 0.03 0.03 0.02 0.03 0.04 0.05 0.04 0.06 0.10 0.12 0.10 0.07 0.04 0.01 0.04 0.07 0.05 0.03 0.02 0.01 0.00 0.00 0.00 0.00 0.00
0.09 0.05 0.02 0.00 0.01 0.01 0.02 0.02 0.03 0.04 0.04 0.04 0.03 0.04 0.07 0.07 0.04 0.00 0.01 0.03 0.05 0.06 0.04 0.02 0.01 0.02 0.03 0.05 0.06 0.06 0.04 0.04 0.07 0.10 0.09 0.06 0.04 0.06 0.08 0.12 0.12 0.08 0.03 0.03 0.04 0.03 0.01 0.01 0.00 0.00 0.00 0.00 0.00 0.00
0.03 0.00 0.01 0.01 0.02 0.02 0.02 0.02 0.03 0.03 0.03 0.02 0.04 0.04 0.05 0.04 0.01 0.02 0.04 0.04 0.03 0.03 0.02 0.02 0.02 0.02 0.03 0.06 0.08 0.07 0.05 0.05 0.04 0.04 0.03 0.02 0.01 0.02 0.03 0.04 0.04 0.02 0.01 0.01 0.01 0.01 0.01 0.00 0.00 0.00 0.00 0.00 0.00 0.00
0.01 0.00 0.00 0.01 0.01 0.03 0.05 0.04 0.03 0.02 0.02 0.05 0.06 0.04 0.03 0.03 0.03 0.03 0.01 0.01 0.02 0.03 0.02 0.03 0.03 0.04 0.03 0.03 0.02 0.02 0.02 0.03 0.05 0.05 0.03 0.03 0.03 0.04 0.01 0.01 0.01 0.00 0.00 0.00 0.00 0.00 0.00 0.00 0.00 0.00 0.00 0.00 0.01 0.00
0.00 0.00 0.02 0.01 0.02 0.01 0.01 0.02 0.02 0.02 0.03 0.04 0.04 0.04 0.03 0.02 0.02 0.02 0.02 0.02 0.02 0.02 0.01 0.01 0.02 0.03 0.03 0.03 0.03 0.03 0.02 0.02 0.02 0.07 0.09 0.06 0.05 0.04 0.01 0.00 0.00 0.00 0.00 0.00 0.00 0.00 0.00 0.00 0.00 0.00 0.00 0.00 0.00 0.00
0.00 0.01 0.02 0.02 0.02 0.01 0.01 0.04 0.05 0.04 0.03 0.02 0.02 0.04 0.02 0.01 0.01 0.01 0.01 0.01 0.01 0.01 0.01 0.01 0.01 0.01 0.02 0.02 0.04 0.06 0.05 0.03 0.01 0.02 0.03 0.03 0.01 0.01 0.01 0.01 0.01 0.01 0.01 0.00 0.00 0.00 0.00 0.00 0.00 0.00 0.00 0.00 0.00 0.00
0.01 0.02 0.02 0.02 0.01 0.01 0.04 0.05 0.05 0.05 0.04 0.05 0.04 0.04 0.04 0.04 0.02 0.00 0.00 0.01 0.01 0.01 0.01 0.01 0.01 0.02 0.02 0.03 0.03 0.03 0.04 0.03 0.01 0.01 0.01 0.02 0.02 0.02 0.03 0.03 0.03 0.03 0.02 0.01 0.00 0.00 0.00 0.00 0.00 0.00 0.00 0.00 0.00 0.00
0.03 0.03 0.04 0.07 0.06 0.04 0.05 0.08 0.06 0.04 0.04 0.04 0.03 0.03 0.03 0.03 0.01 0.01 0.02 0.02 0.02 0.02 0.03 0.04 0.05 0.04 0.02 0.02 0.01 0.01 0.01 0.02 0.03 0.04 0.05 0.06 0.06 0.05 0.05 0.04 0.03 0.01 0.00 0.00 0.00 0.00 0.00 0.00 0.00 0.00 0.00 0.00 0.00 0.00

GFSWCAN_prec_precacc24_285.txt.gz
Total_Precipitation_Accumulation
0.31 0.19 0.10 0.04 0.00 0.00 0.01 0.01 0.00 0.00 0.00 0.00 0.00 0.00 0.00 0.00 0.01 0.01 0.04 0.02 0.01 0.02 0.00 0.00 0.00 0.00 0.00 0.00 0.01 0.00 0.00 0.00 0.00 0.00 0.01 0.00 0.00 0.00 0.00 0.00 0.00 0.00 0.01 0.03 0.06 0.07 0.03 0.01 0.00 0.02 0.02 0.01 0.02 0.02
0.23 0.12 0.05 0.01 0.00 0.00 0.00 0.00 0.00 0.00 0.00 0.00 0.00 0.00 0.00 0.00 0.01 0.03 0.04 0.05 0.05 0.05 0.01 0.00 0.00 0.00 0.00 0.00 0.00 0.01 0.00 0.01 0.00 0.01 0.01 0.03 0.01 0.01 0.00 0.00 0.00 0.00 0.00 0.02 0.04 0.03 0.01 0.00 0.00 0.00 0.01 0.01 0.01 0.01
0.14 0.05 0.01 0.00 0.00 0.00 0.00 0.00 0.00 0.01 0.01 0.00 0.00 0.00 0.00 0.00 0.01 0.02 0.02 0.05 0.03 0.01 0.00 0.00 0.00 0.00 0.00 0.00 0.00 0.02 0.02 0.00 0.00 0.00 0.02 0.02 0.01 0.00 0.00 0.00 0.00 0.00 0.00 0.01 0.01 0.00 0.00 0.00 0.00 0.00 0.01 0.01 0.01 0.00
0.06 0.02 0.00 0.00 0.00 0.00 0.00 0.00 0.00 0.01 0.01 0.00 0.00 0.00 0.00 0.00 0.01 0.01 0.02 0.04 0.04 0.02 0.01 0.00 0.00 0.00 0.00 0.00 0.00 0.00 0.00 0.00 0.01 0.01 0.04 0.03 0.01 0.00 0.00 0.00 0.00 0.00 0.00 0.00 0.00 0.00 0.00 0.00 0.01 0.02 0.01 0.00 0.00 0.00
0.02 0.00 0.00 0.00 0.00 0.00 0.00 0.00 0.00 0.01 0.01 0.00 0.00 0.00 0.00 0.00 0.02 0.01 0.01 0.03 0.03 0.03 0.03 0.01 0.00 0.00 0.00 0.00 0.00 0.00 0.00 0.00 0.04 0.05 0.07 0.04 0.00 0.01 0.00 0.00 0.00 0.00 0.00 0.00 0.00 0.00 0.01 0.01 0.00 0.00 0.00 0.00 0.00 0.00
0.00 0.00 0.00 0.00 0.00 0.00 0.00 0.00 0.01 0.01 0.00 0.00 0.00 0.00 0.00 0.00 0.00 0.02 0.02 0.00 0.00 0.04 0.06 0.01 0.00 0.00 0.00 0.00 0.00 0.00 0.00 0.01 0.05 0.06 0.04 0.01 0.00 0.02 0.04 0.00 0.00 0.00 0.00 0.00 0.00 0.00 0.00 0.00 0.00 0.00 0.01 0.02 0.01 0.01
0.01 0.00 0.00 0.00 0.00 0.00 0.00 0.01 0.01 0.00 0.00 0.00 0.00 0.00 0.00 0.00 0.01 0.03 0.01 0.01 0.02 0.03 0.03 0.02 0.00 0.00 0.00 0.00 0.00 0.00 0.01 0.04 0.05 0.08 0.05 0.01 0.00 0.02 0.05 0.01 0.00 0.00 0.00 0.00 0.00 0.00 0.00 0.00 0.00 0.01 0.01 0.01 0.00 0.00
0.01 0.00 0.00 0.00 0.00 0.00 0.01 0.01 0.00 0.00 0.01 0.00 0.00 0.00 0.00 0.00 0.01 0.00 0.00 0.00 0.00 0.02 0.05 0.03 0.00 0.00 0.00 0.00 0.01 0.00 0.02 0.04 0.06 0.05 0.02 0.01 0.00 0.04 0.07 0.00 0.00 0.00 0.00 0.00 0.00 0.00 0.01 0.00 0.01 0.00 0.00 0.00 0.00 0.00
0.00 0.00 0.00 0.00 0.00 0.01 0.01 0.00 0.00 0.01 0.00 0.00 0.00 0.00 0.02 0.02 0.03 0.01 0.01 0.01 0.04 0.06 0.06 0.04 0.00 0.00 0.00 0.01 0.03 0.01 0.01 0.04 0.03 0.06 0.02 0.02 0.02 0.03 0.00 0.00 0.00 0.00 0.00 0.01 0.00 0.00 0.00 0.01 0.01 0.01 0.01 0.01 0.01 0.01
0.00 0.00 0.00 0.00 0.01 0.00 0.00 0.00 0.00 0.00 0.00 0.00 0.00 0.02 0.03 0.02 0.02 0.02 0.02 0.06 0.08 0.06 0.05 0.03 0.00 0.00 0.00 0.01 0.06 0.05 0.07 0.02 0.05 0.02 0.02 0.06 0.00 0.00 0.00 0.00 0.00 0.00 0.00 0.01 0.02 0.02 0.02 0.03 0.02 0.03 0.02 0.03 0.03 0.02
0.00 0.00 0.00 0.01 0.00 0.01 0.00 0.00 0.00 0.00 0.00 0.01 0.01 0.05 0.08 0.03 0.04 0.06 0.07 0.06 0.04 0.05 0.02 0.00 0.00 0.00 0.00 0.01 0.05 0.12 0.18 0.14 0.16 0.01 0.03 0.05 0.01 0.00 0.00 0.00 0.00 0.00 0.00 0.01 0.02 0.03 0.03 0.03 0.04 0.05 0.05 0.05 0.03 0.02
0.01 0.01 0.01 0.00 0.00 0.00 0.00 0.00 0.00 0.00 0.02 0.01 0.02 0.07 0.07 0.04 0.04 0.05 0.08 0.05 0.02 0.01 0.00 0.00 0.00 0.00 0.00 0.00 0.01 0.04 0.05 0.05 0.05 0.03 0.12 0.05 0.02 0.01 0.01 0.03 0.01 0.01 0.02 0.03 0.04 0.04 0.04 0.04 0.05 0.05 0.04 0.04 0.06 0.07
0.01 0.01 0.01 0.00 0.00 0.01 0.00 0.01 0.00 0.00 0.01 0.01 0.01 0.03 0.03 0.03 0.07 0.07 0.03 0.01 0.00 0.01 0.02 0.02 0.02 0.02 0.03 0.03 0.04 0.03 0.06 0.04 0.02 0.07 0.04 0.03 0.01 0.02 0.07 0.08 0.06 0.08 0.11 0.12 0.10 0.09 0.09 0.05 0.03 0.04 0.04 0.04 0.02 0.02
0.02 0.01 0.01 0.01 0.00 0.00 0.00 0.01 0.00 0.00 0.03 0.04 0.02 0.02 0.02 0.04 0.01 0.00 0.00 0.00 0.04 0.05 0.04 0.05 0.12 0.17 0.11 0.10 0.06 0.06 0.03 0.04 0.08 0.05 0.05 0.09 0.11 0.12 0.14 0.14 0.18 0.27 0.26 0.16 0.10 0.04 0.02 0.00 0.00 0.00 0.00 0.00 0.00 0.00
0.02 0.02 0.01 0.01 0.01 0.01 0.01 0.01 0.00 0.04 0.07 0.05 0.07 0.05 0.01 0.00 0.01 0.02 0.01 0.01 0.03 0.04 0.06 0.10 0.16 0.28 0.34 0.46 0.27 0.18 0.19 0.12 0.07 0.11 0.23 0.22 0.11 0.11 0.18 0.16 0.16 0.21 0.15 0.10 0.05 0.01 0.00 0.00 0.00 0.00 0.00 0.00 0.00 0.00
0.04 0.03 0.03 0.02 0.01 0.01 0.00 0.00 0.02 0.07 0.06 0.05 0.04 0.03 0.02 0.03 0.02 0.02 0.01 0.02 0.04 0.04 0.04 0.07 0.10 0.11 0.14 0.20 0.30 0.25 0.23 0.25 0.44 0.43 0.46 0.37 0.30 0.32 0.24 0.16 0.11 0.09 0.06 0.03 0.02 0.02 0.01 0.00 0.00 0.00 0.00 0.00 0.00 0.00
0.01 0.12 0.06 0.03 0.01 0.00 0.00 0.01 0.09 0.11 0.04 0.05 0.02 0.00 0.01 0.02 0.02 0.02 0.04 0.05 0.05 0.06 0.06 0.09 0.17 0.12 0.08 0.13 0.10 0.15 0.35 0.49 0.36 0.23 0.16 0.13 0.16 0.13 0.06 0.08 0.07 0.06 0.03 0.01 0.01 0.01 0.01 0.01 0.00 0.00 0.00 0.00 0.00 0.00
0.03 0.06 0.03 0.00 0.00 0.02 0.04 0.03 0.02 0.03 0.04 0.01 0.01 0.01 0.02 0.02 0.03 0.03 0.03 0.04 0.08 0.11 0.10 0.12 0.13 0.11 0.11 0.10 0.08 0.17 0.25 0.19 0.10 0.05 0.03 0.01 0.04 0.04 0.02 0.01 0.01 0.01 0.01 0.01 0.01 0.01 0.01 0.01 0.01 0.00 0.00 0.00 0.00 0.00
0.06 0.02 0.00 0.00 0.00 0.02 0.04 0.05 0.05 0.03 0.00 0.00 0.00 0.01 0.02 0.02 0.02 0.03 0.03 0.03 0.04 0.05 0.11 0.13 0.14 0.09 0.03 0.03 0.06 0.04 0.03 0.03 0.05 0.05 0.01 0.00 0.01 0.01 0.01 0.00 0.00 0.00 0.00 0.01 0.01 0.02 0.02 0.01 0.00 0.00 0.00 0.01 0.01 0.01
0.00 0.00 0.00 0.00 0.00 0.02 0.02 0.01 0.03 0.03 0.01 0.00 0.01 0.02 0.03 0.02 0.02 0.03 0.02 0.02 0.03 0.08 0.16 0.20 0.11 0.04 0.03 0.02 0.01 0.01 0.00 0.00 0.00 0.00 0.00 0.00 0.00 0.00 0.00 0.01 0.01 0.01 0.01 0.03 0.03 0.03 0.02 0.00 0.00 0.01 0.01 0.01 0.04 0.05
0.01 0.01 0.01 0.00 0.02 0.03 0.02 0.01 0.02 0.02 0.02 0.02 0.01 0.03 0.02 0.02 0.02 0.02 0.03 0.04 0.04 0.05 0.07 0.04 0.02 0.01 0.01 0.00 0.00 0.00 0.00 0.00 0.00 0.00 0.00 0.00 0.00 0.00 0.01 0.01 0.01 0.01 0.03 0.04 0.04 0.03 0.02 0.02 0.02 0.02 0.02 0.04 0.09 0.13
0.04 0.01 0.03 0.05 0.05 0.05 0.04 0.00 0.00 0.00 0.01 0.01 0.01 0.02 0.03 0.03 0.03 0.03 0.04 0.05 0.04 0.03 0.04 0.04 0.02 0.01 0.00 0.00 0.00 0.00 0.00 0.00 0.00 0.00 0.00 0.01 0.01 0.01 0.01 0.01 0.02 0.02 0.03 0.03 0.04 0.04 0.04 0.03 0.04 0.05 0.09 0.14 0.13 0.08
0.03 0.01 0.02 0.03 0.04 0.02 0.00 0.00 0.00 0.00 0.01 0.01 0.01 0.02 0.02 0.01 0.00 0.01 0.02 0.01 0.01 0.02 0.02 0.01 0.00 0.00 0.01 0.00 0.00 0.00 0.00 0.00 0.00 0.01 0.01 0.01 0.01 0.00 0.00 0.01 0.02 0.03 0.03 0.04 0.03 0.04 0.06 0.09 0.12 0.14 0.11 0.06 0.02 0.01
0.03 0.03 0.01 0.01 0.01 0.00 0.00 0.00 0.00 0.00 0.01 0.01 0.01 0.01 0.01 0.01 0.02 0.02 0.02 0.01 0.01 0.01 0.01 0.01 0.00 0.01 0.01 0.01 0.01 0.00 0.01 0.02 0.01 0.01 0.02 0.02 0.02 0.02 0.02 0.02 0.01 0.01 0.02 0.05 0.09 0.14 0.14 0.12 0.09 0.05 0.02 0.01 0.01 0.01
0.12 0.03 0.00 0.00 0.00 0.00 0.00 0.00 0.00 0.01 0.01 0.02 0.02 0.03 0.04 0.03 0.04 0.03 0.02 0.02 0.02 0.02 0.01 0.01 0.02 0.02 0.02 0.01 0.01 0.01 0.02 0.03 0.04 0.03 0.03 0.04 0.03 0.04 0.03 0.02 0.03 0.03 0.08 0.12 0.11 0.11 0.09 0.08 0.05 0.03 0.01 0.00 0.00 0.00
0.18 0.03 0.00 0.00 0.00 0.00 0.00 0.00 0.01 0.01 0.02 0.02 0.01 0.01 0.02 0.03 0.02 0.02 0.01 0.01 0.01 0.02 0.03 0.04 0.03 0.02 0.01 0.01 0.01 0.02 0.02 0.01 0.01 0.01 0.02 0.03 0.05 0.10 0.12 0.11 0.08 0.04 0.03 0.08 0.12 0.10 0.08 0.07 0.04 0.01 0.00 0.00 0.00 0.00
0.06 0.04 0.01 0.00 0.00 0.00 0.00 0.00 0.01 0.02 0.02 0.02 0.02 0.03 0.04 0.05 0.03 0.00 0.01 0.02 0.03 0.04 0.03 0.02 0.01 0.00 0.00 0.00 0.01 0.02 0.01 0.01 0.02 0.05 0.07 0.04 0.04 0.06 0.08 0.14 0.14 0.09 0.04 0.05 0.07 0.07 0.06 0.05 0.03 0.01 0.00 0.00 0.00 0.01
0.03 0.00 0.00 0.00 0.00 0.00 0.00 0.00 0.01 0.01 0.01 0.01 0.02 0.02 0.03 0.02 0.01 0.01 0.01 0.02 0.02 0.02 0.02 0.01 0.01 0.00 0.00 0.01 0.02 0.02 0.01 0.02 0.03 0.04 0.03 0.02 0.01 0.02 0.04 0.06 0.05 0.03 0.02 0.02 0.02 0.02 0.03 0.03 0.01 0.01 0.01 0.00 0.01 0.00
0.01 0.00 0.00 0.00 0.00 0.00 0.01 0.00 0.01 0.01 0.01 0.02 0.03 0.02 0.01 0.01 0.02 0.02 0.01 0.01 0.02 0.02 0.02 0.01 0.01 0.01 0.01 0.01 0.01 0.02 0.02 0.03 0.04 0.05 0.03 0.03 0.03 0.03 0.02 0.01 0.01 0.01 0.01 0.01 0.01 0.01 0.02 0.02 0.02 0.01 0.00 0.01 0.01 0.01
0.00 0.00 0.01 0.01 0.01 0.00 0.00 0.01 0.01 0.01 0.01 0.02 0.02 0.02 0.01 0.01 0.01 0.01 0.01 0.01 0.01 0.02 0.01 0.01 0.01 0.01 0.01 0.02 0.02 0.03 0.01 0.01 0.02 0.07 0.09 0.05 0.04 0.04 0.01 0.01 0.01 0.02 0.02 0.03 0.04 0.04 0.02 0.02 0.01 0.00 0.00 0.00 0.00 0.00
0.00 0.01 0.01 0.02 0.01 0.00 0.01 0.02 0.03 0.03 0.01 0.01 0.01 0.02 0.01 0.00 0.00 0.00 0.00 0.00 0.01 0.01 0.01 0.00 0.00 0.00 0.01 0.01 0.03 0.05 0.04 0.02 0.01 0.02 0.04 0.04 0.02 0.03 0.03 0.03 0.04 0.04 0.06 0.07 0.08 0.07 0.04 0.02 0.01 0.00 0.00 0.00 0.00 0.00
0.02 0.02 0.02 0.01 0.01 0.01 0.03 0.04 0.04 0.04 0.03 0.04 0.03 0.03 0.03 0.04 0.02 0.00 0.00 0.01 0.01 0.01 0.01 0.01 0.01 0.01 0.01 0.02 0.03 0.03 0.04 0.03 0.01 0.01 0.02 0.02 0.03 0.04 0.05 0.06 0.07 0.08 0.08 0.07 0.06 0.04 0.02 0.01 0.00 0.00 0.00 0.00 0.00 0.00
0.03 0.03 0.02 0.02 0.01 0.01 0.02 0.07 0.04 0.03 0.02 0.02 0.02 0.02 0.02 0.02 0.01 0.00 0.01 0.02 0.02 0.02 0.02 0.03 0.03 0.03 0.02 0.02 0.01 0.01 0.01 0.02 0.03 0.04 0.06 0.07 0.07 0.07 0.07 0.06 0.05 0.04 0.03 0.02 0.01 0.00 0.00 0.00 0.00 0.00 0.00 0.00 0.00 0.00

GFSWCAN_prec_precacc24_288.txt.gz
Total_Precipitation_Accumulation
0.62 0.45 0.29 0.16 0.08 0.05 0.02 0.01 0.00 0.00 0.00 0.00 0.00 0.00 0.00 0.00 0.00 0.00 0.01 0.00 0.00 0.00 0.00 0.00 0.00 0.00 0.00 0.00 0.00 0.00 0.00 0.00 0.00 0.00 0.00 0.00 0.00 0.00 0.00 0.00 0.00 0.00 0.00 0.00 0.01 0.03 0.01 0.00 0.00 0.01 0.01 0.00 0.02 0.02
0.50 0.33 0.19 0.09 0.05 0.03 0.01 0.00 0.00 0.00 0.00 0.00 0.00 0.00 0.00 0.00 0.00 0.00 0.01 0.01 0.01 0.01 0.00 0.00 0.00 0.00 0.00 0.00 0.00 0.00 0.00 0.00 0.00 0.00 0.00 0.01 0.00 0.00 0.00 0.00 0.00 0.00 0.00 0.00 0.00 0.01 0.00 0.00 0.00 0.00 0.01 0.01 0.01 0.01
0.35 0.19 0.12 0.06 0.03 0.01 0.00 0.00 0.00 0.00 0.01 0.00 0.00 0.00 0.00 0.00 0.00 0.01 0.00 0.02 0.01 0.00 0.00 0.00 0.00 0.00 0.00 0.00 0.00 0.01 0.00 0.00 0.00 0.00 0.01 0.00 0.00 0.00 0.00 0.00 0.00 0.00 0.00 0.00 0.00 0.00 0.00 0.00 0.00 0.00 0.01 0.01 0.01 0.00
0.21 0.10 0.07 0.04 0.02 0.00 0.00 0.00 0.00 0.01 0.01 0.00 0.00 0.00 0.00 0.00 0.00 0.01 0.01 0.01 0.01 0.00 0.00 0.00 0.00 0.00 0.00 0.00 0.00 0.00 0.00 0.00 0.00 0.00 0.01 0.01 0.00 0.00 0.00 0.00 0.00 0.00 0.00 0.00 0.00 0.00 0.00 0.00 0.00 0.01 0.01 0.00 0.00 0.00
0.11 0.04 0.03 0.02 0.01 0.00 0.00 0.00 0.00 0.01 0.01 0.00 0.00 0.00 0.00 0.00 0.01 0.01 0.00 0.01 0.01 0.01 0.01 0.00 0.00 0.00 0.00 0.00 0.00 0.00 0.00 0.00 0.01 0.03 0.05 0.02 0.00 0.00 0.00 0.00 0.00 0.00 0.00 0.00 0.00 0.00 0.00 0.00 0.00 0.00 0.00 0.00 0.00 0.00
0.05 0.02 0.01 0.01 0.00 0.00 0.00 0.00 0.01 0.01 0.00 0.00 0.00 0.00 0.00 0.00 0.00 0.00 0.01 0.00 0.00 0.01 0.02 0.00 0.00 0.00 0.00 0.00 0.00 0.00 0.00 0.00 0.01 0.03 0.03 0.00 0.00 0.01 0.02 0.00 0.00 0.00 0.00 0.00 0.00 0.00 0.00 0.00 0.00 0.00 0.01 0.01 0.01 0.01
0.02 0.00 0.00 0.00 0.00 0.00 0.00 0.01 0.01 0.00 0.00 0.00 0.00 0.00 0.00 0.00 0.00 0.01 0.00 0.00 0.00 0.01 0.01 0.00 0.00 0.00 0.00 0.00 0.00 0.00 0.00 0.01 0.01 0.04 0.04 0.00 0.00 0.01 0.03 0.00 0.00 0.00 0.00 0.00 0.00 0.00 0.00 0.00 0.00 0.01 0.01 0.01 0.00 0.00
0.01 0.00 0.00 0.00 0.00 0.00 0.01 0.01 0.00 0.00 0.01 0.00 0.00 0.00 0.00 0.00 0.00 0.00 0.00 0.00 0.00 0.01 0.02 0.01 0.00 0.00 0.00 0.00 0.00 0.00 0.00 0.02 0.04 0.03 0.02 0.01 0.00 0.03 0.05 0.00 0.00 0.00 0.00 0.00 0.00 0.00 0.01 0.00 0.01 0.00 0.00 0.00 0.00 0.00
0.00 0.00 0.00 0.00 0.00 0.01 0.01 0.00 0.00 0.01 0.00 0.00 0.00 0.00 0.00 0.00 0.01 0.00 0.00 0.01 0.02 0.02 0.02 0.01 0.00 0.00 0.00 0.00 0.01 0.00 0.00 0.02 0.02 0.05 0.02 0.02 0.02 0.02 0.00 0.00 0.00 0.00 0.00 0.01 0.00 0.00 0.00 0.00 0.02 0.01 0.01 0.01 0.01 0.01
0.00 0.00 0.00 0.00 0.01 0.00 0.00 0.00 0.00 0.00 0.00 0.00 0.00 0.00 0.01 0.01 0.01 0.01 0.01 0.02 0.03 0.01 0.02 0.01 0.00 0.00 0.00 0.00 0.02 0.02 0.04 0.01 0.02 0.01 0.02 0.05 0.01 0.00 0.00 0.00 0.00 0.00 0.00 0.01 0.02 0.03 0.02 0.02 0.02 0.03 0.02 0.03 0.03 0.02
0.00 0.00 0.00 0.01 0.00 0.00 0.00 0.00 0.00 0.00 0.00 0.00 0.00 0.04 0.04 0.02 0.02 0.03 0.03 0.01 0.01 0.02 0.01 0.00 0.00 0.00 0.00 0.01 0.03 0.06 0.12 0.11 0.13 0.01 0.02 0.03 0.02 0.01 0.00 0.00 0.00 0.00 0.00 0.01 0.02 0.03 0.03 0.03 0.04 0.05 0.05 0.05 0.03 0.02
0.01 0.01 0.01 0.00 0.00 0.00 0.00 0.00 0.00 0.00 0.00 0.00 0.01 0.06 0.04 0.02 0.01 0.02 0.05 0.03 0.01 0.01 0.00 0.00 0.00 0.00 0.00 0.00 0.01 0.02 0.03 0.03 0.04 0.01 0.06 0.03 0.02 0.01 0.00 0.01 0.01 0.01 0.02 0.03 0.04 0.04 0.04 0.04 0.05 0.05 0.04 0.04 0.06 0.07
0.01 0.01 0.01 0.00 0.00 0.01 0.00 0.00 0.00 0.00 0.00 0.00 0.00 0.01 0.01 0.02 0.04 0.02 0.01 0.01 0.00 0.01 0.02 0.01 0.01 0.01 0.01 0.01 0.03 0.02 0.03 0.02 0.01 0.03 0.03 0.04 0.02 0.02 0.04 0.07 0.06 0.08 0.11 0.12 0.10 0.09 0.09 0.05 0.03 0.04 0.04 0.04 0.02 0.02
0.02 0.01 0.01 0.01 0.00 0.00 0.00 0.01 0.00 0.00 0.00 0.02 0.01 0.00 0.01 0.02 0.00 0.00 0.00 0.00 0.03 0.03 0.01 0.02 0.06 0.14 0.10 0.08 0.04 0.03 0.01 0.01 0.05 0.03 0.08 0.10 0.09 0.09 0.09 0.11 0.16 0.27 0.26 0.16 0.10 0.04 0.02 0.00 0.00 0.00 0.00 0.00 0.00 0.00
0.02 0.02 0.01 0.01 0.01 0.01 0.01 0.00 0.00 0.01 0.02 0.01 0.03 0.02 0.00 0.00 0.01 0.00 0.00 0.01 0.02 0.02 0.03 0.05 0.08 0.15 0.24 0.36 0.24 0.16 0.15 0.08 0.06 0.14 0.23 0.18 0.10 0.10 0.15 0.15 0.16 0.20 0.15 0.10 0.05 0.01 0.00 0.00 0.00 0.00 0.00 0.00 0.00 0.00
0.04 0.03 0.03 0.02 0.01 0.01 0.00 0.00 0.00 0.02 0.01 0.01 0.02 0.02 0.01 0.02 0.02 0.01 0.01 0.01 0.01 0.01 0.02 0.03 0.06 0.07 0.10 0.12 0.22 0.17 0.16 0.22 0.38 0.34 0.36 0.31 0.30 0.31 0.21 0.15 0.11 0.09 0.06 0.03 0.02 0.02 0.01 0.00 0.00 0.00 0.00 0.00 0.00 0.00
0.01 0.11 0.06 0.03 0.01 0.00 0.00 0.00 0.03 0.03 0.01 0.01 0.01 0.00 0.01 0.01 0.01 0.01 0.01 0.01 0.02 0.02 0.04 0.06 0.09 0.07 0.06 0.10 0.09 0.13 0.31 0.41 0.28 0.17 0.10 0.09 0.13 0.12 0.05 0.06 0.06 0.06 0.03 0.01 0.01 0.01 0.01 0.01 0.01 0.01 0.01 0.00 0.00 0.00
0.02 0.05 0.03 0.00 0.00 0.00 0.01 0.00 0.00 0.01 0.02 0.01 0.02 0.01 0.01 0.00 0.00 0.00 0.00 0.02 0.03 0.06 0.07 0.09 0.09 0.08 0.08 0.08 0.08 0.15 0.19 0.12 0.03 0.03 0.02 0.00 0.00 0.01 0.01 0.00 0.00 0.01 0.00 0.01 0.01 0.01 0.02 0.03 0.03 0.03 0.01 0.00 0.01 0.01
0.05 0.01 0.00 0.00 0.00 0.00 0.01 0.02 0.02 0.01 0.00 0.00 0.00 0.00 0.00 0.00 0.00 0.00 0.01 0.02 0.02 0.04 0.09 0.11 0.11 0.08 0.03 0.02 0.04 0.03 0.01 0.00 0.00 0.01 0.00 0.00 0.00 0.00 0.00 0.00 0.00 0.00 0.00 0.01 0.01 0.03 0.03 0.03 0.02 0.01 0.02 0.02 0.03 0.02
0.00 0.00 0.00 0.00 0.00 0.00 0.00 0.00 0.01 0.01 0.00 0.00 0.00 0.00 0.01 0.00 0.01 0.01 0.01 0.01 0.03 0.07 0.14 0.18 0.09 0.03 0.02 0.01 0.00 0.00 0.00 0.00 0.00 0.00 0.00 0.00 0.00 0.00 0.00 0.00 0.00 0.00 0.01 0.02 0.03 0.03 0.03 0.01 0.01 0.02 0.02 0.02 0.05 0.06
0.00 0.00 0.00 0.00 0.00 0.00 0.00 0.00 0.00 0.00 0.00 0.01 0.00 0.01 0.01 0.01 0.01 0.01 0.01 0.02 0.02 0.03 0.05 0.02 0.01 0.00 0.00 0.00 0.00 0.00 0.00 0.00 0.00 0.00 0.00 0.00 0.00 0.00 0.00 0.01 0.01 0.01 0.02 0.03 0.04 0.03 0.02 0.03 0.03 0.03 0.04 0.07 0.10 0.14
0.01 0.00 0.01 0.02 0.02 0.01 0.01 0.00 0.00 0.00 0.00 0.00 0.00 0.00 0.00 0.00 0.00 0.01 0.01 0.01 0.01 0.00 0.01 0.02 0.01 0.01 0.00 0.00 0.00 0.00 0.00 0.00 0.00 0.00 0.00 0.01 0.01 0.00 0.00 0.00 0.01 0.01 0.02 0.03 0.05 0.05 0.04 0.04 0.05 0.08 0.13 0.16 0.15 0.09
0.01 0.00 0.00 0.01 0.01 0.00 0.00 0.00 0.00 0.00 0.00 0.00 0.00 0.00 0.00 0.00 0.00 0.00 0.00 0.00 0.00 0.00 0.01 0.00 0.00 0.00 0.01 0.00 0.00 0.00 0.00 0.00 0.00 0.01 0.01 0.01 0.01 0.00 0.00 0.00 0.01 0.03 0.03 0.03 0.03 0.05 0.07 0.11 0.14 0.16 0.14 0.09 0.03 0.01
0.01 0.02 0.00 0.00 0.00 0.00 0.00 0.00 0.00 0.00 0.00 0.00 0.00 0.00 0.00 0.00 0.00 0.00 0.00 0.00 0.00 0.00 0.00 0.00 0.00 0.00 0.00 0.00 0.00 0.00 0.01 0.01 0.01 0.01 0.01 0.01 0.01 0.00 0.01 0.01 0.01 0.01 0.03 0.05 0.09 0.15 0.16 0.14 0.11 0.08 0.06 0.03 0.01 0.01
0.07 0.02 0.00 0.00 0.00 0.00 0.00 0.00 0.00 0.00 0.00 0.00 0.00 0.00 0.01 0.01 0.01 0.01 0.01 0.00 0.00 0.00 0.00 0.00 0.00 0.01 0.00 0.00 0.00 0.01 0.01 0.01 0.01 0.01 0.01 0.01 0.01 0.02 0.03 0.02 0.02 0.04 0.09 0.13 0.12 0.12 0.11 0.11 0.09 0.07 0.05 0.04 0.02 0.01
0.14 0.03 0.00 0.00 0.00 0.00 0.00 0.00 0.00 0.00 0.00 0.00 0.00 0.00 0.00 0.01 0.00 0.00 0.00 0.00 0.00 0.00 0.01 0.01 0.01 0.01 0.01 0.01 0.00 0.00 0.00 0.00 0.00 0.00 0.00 0.02 0.03 0.07 0.09 0.09 0.07 0.03 0.03 0.09 0.13 0.12 0.10 0.09 0.08 0.08 0.09 0.04 0.01 0.00
0.04 0.04 0.01 0.00 0.00 0.00 0.00 0.00 0.00 0.00 0.00 0.00 0.00 0.01 0.02 0.01 0.01 0.00 0.00 0.01 0.01 0.01 0.01 0.01 0.01 0.00 0.00 0.00 0.00 0.00 0.00 0.00 0.00 0.00 0.01 0.02 0.02 0.04 0.07 0.13 0.14 0.08 0.04 0.05 0.07 0.08 0.08 0.08 0.08 0.07 0.04 0.01 0.01 0.02
0.02 0.00 0.00 0.00 0.00 0.00 0.00 0.00 0.00 0.00 0.00 0.00 0.00 0.00 0.00 0.01 0.00 0.00 0.00 0.00 0.00 0.01 0.01 0.01 0.01 0.00 0.00 0.00 0.00 0.00 0.00 0.00 0.00 0.01 0.01 0.01 0.01 0.03 0.05 0.07 0.05 0.03 0.02 0.02 0.02 0.04 0.05 0.06 0.05 0.03 0.03 0.02 0.01 0.01
0.00 0.00 0.00 0.00 0.00 0.00 0.00 0.00 0.00 0.00 0.00 0.01 0.01 0.00 0.00 0.00 0.00 0.00 0.00 0.00 0.00 0.00 0.01 0.01 0.01 0.01 0.01 0.00 0.00 0.00 0.01 0.01 0.03 0.04 0.02 0.02 0.01 0.03 0.02 0.01 0.01 0.01 0.02 0.02 0.02 0.03 0.03 0.02 0.03 0.03 0.02 0.01 0.01 0.01
0.00 0.00 0.00 0.00 0.00 0.00 0.00 0.00 0.00 0.00 0.00 0.01 0.01 0.00 0.00 0.00 0.00 0.00 0.00 0.00 0.00 0.00 0.01 0.01 0.01 0.01 0.00 0.00 0.00 0.01 0.01 0.00 0.01 0.06 0.08 0.03 0.02 0.02 0.01 0.01 0.02 0.02 0.03 0.04 0.06 0.08 0.04 0.03 0.03 0.03 0.01 0.00 0.00 0.00
0.00 0.00 0.00 0.00 0.00 0.00 0.00 0.01 0.01 0.01 0.00 0.00 0.00 0.01 0.00 0.00 0.00 0.00 0.00 0.00 0.00 0.00 0.00 0.00 0.00 0.00 0.01 0.00 0.01 0.02 0.02 0.02 0.01 0.02 0.04 0.04 0.02 0.02 0.03 0.03 0.04 0.05 0.07 0.09 0.10 0.10 0.06 0.04 0.03 0.01 0.01 0.00 0.00 0.00
0.00 0.00 0.01 0.00 0.00 0.00 0.01 0.02 0.01 0.01 0.00 0.01 0.01 0.01 0.01 0.02 0.01 0.00 0.00 0.01 0.00 0.00 0.00 0.00 0.01 0.01 0.01 0.01 0.01 0.01 0.02 0.03 0.01 0.01 0.02 0.03 0.03 0.04 0.05 0.06 0.08 0.08 0.09 0.08 0.07 0.05 0.02 0.01 0.01 0.00 0.00 0.00 0.00 0.00
0.02 0.01 0.01 0.01 0.00 0.00 0.01 0.02 0.01 0.01 0.00 0.00 0.00 0.00 0.00 0.01 0.00 0.00 0.00 0.01 0.01 0.01 0.01 0.02 0.02 0.02 0.01 0.01 0.01 0.01 0.01 0.02 0.03 0.04 0.06 0.07 0.07 0.07 0.07 0.06 0.05 0.04 0.03 0.03 0.02 0.01 0.00 0.00 0.00 0.00 0.00 0.00 0.00 0.00